Regional Weather Roundup
Issued by NWS

Home | Current Version | Previous Version | Graphics & Text | Print | Product List | Glossary Off
Versions: 1 2 3 4 5 6 7 8 9 10 11 12 13 14 15 16 17 18 19 20 21 22 23 24 25 26 27 28 29 30 31 32 33 34 35 36 37 38 39 40 41 42 43 44 45 46 47 48 49 50

127
ASUS43 KMKX 051221
RWRWI

WISCONSIN REGIONAL WEATHER ROUNDUP
NATIONAL WEATHER SERVICE MILWAUKEE/SULLIVAN WI
600 AM CST MON DEC 05 2016

NOTE: "FAIR" INDICATES FEW OR NO CLOUDS BELOW 12,000 FEET WITH NO
SIGNIFICANT WEATHER AND/OR OBSTRUCTIONS TO VISIBILITY.

WIZ001-002-006>008-014>016-023>028-051300-
NORTHWEST WISCONSIN

CITY           SKY/WX    TMP DP  RH WIND       PRES   REMARKS
SUPERIOR ARPT  CLOUDY    32  29  87 SW5       29.77R WCI  27
6HR MIN TEMP:  32; 6HR MAX TEMP:  34;

ASHLAND        CLOUDY    34  28  79 SW7       29.77R WCI  28
6HR MIN TEMP:  33; 6HR MAX TEMP:  34;

HAYWARD        CLOUDY    32  28  85 SW7       29.78R WCI  26
6HR MIN TEMP:  32; 6HR MAX TEMP:  34;

SIREN          CLEAR     29  28  96 CALM      29.79S
6HR MIN TEMP:  29; 6HR MAX TEMP:  34;

CUMBERLAND     FOG       19  18  93 S3        29.80R VSB<1/4
RICE LAKE      FOG       24  23  96 CALM      29.82S VSB 1/4
6HR MIN TEMP:  24; 6HR MAX TEMP:  34;

CHETEK         CLEAR     24  23  97 S5        29.82R FOG     WCI  18
6HR MIN TEMP:  24; 6HR MAX TEMP:  34;

LADYSMITH      CLEAR     28  27  96 S5        29.83R FOG     WCI  23
6HR MIN TEMP:  28; 6HR MAX TEMP:  34;

EAU CLAIRE     CLEAR     29  27  92 S5        29.83R WCI  24
6HR MIN TEMP:  26; 6HR MAX TEMP:  35;

MENOMONIE      FOG       22  20  96 E5        29.83S VSB 1/4 WCI  15
6HR MIN TEMP:  22; 6HR MAX TEMP:  36;

NEW RICHMOND   CLEAR     25  25 100 SE3       29.81R FOG
6HR MIN TEMP:  22; 6HR MAX TEMP:  33;

OSCEOLA        CLEAR     27  27 100 SE6       29.83R FOG     WCI  20
6HR MIN TEMP:  23; 6HR MAX TEMP:  35;

$$

WIZ003>005-009-010-017-018-051300-
NORTH CENTRAL WISCONSIN

CITY           SKY/WX    TMP DP  RH WIND       PRES   REMARKS
MANITOWISH WTR CLOUDY    31  31 100 W7        29.75R WCI  24
6HR MIN TEMP:  31; 6HR MAX TEMP:  32;

ARBOR VITAE    CLOUDY    33  30  90 W7        29.76R WCI  27
6HR MIN TEMP:  32; 6HR MAX TEMP:  34;

WOODRUFF       CLOUDY    33  30  90 W7        29.76R WCI  27
6HR MIN TEMP:  32; 6HR MAX TEMP:  34;

RHINELANDER    CLOUDY    32  28  85 W12G21    29.78R WCI  23
6HR MIN TEMP:  32; 6HR MAX TEMP:  33; 6HR PCP: TRACE;

EAGLE RIVER    CLOUDY    32  30  94 W13       29.75R WCI  22
6HR MIN TEMP:  30; 6HR MAX TEMP:  32;

LAND O LAKES   CLOUDY    32  31  96 SW7       29.76R WCI  26
6HR MIN TEMP:  31; 6HR MAX TEMP:  32;

PHILLIPS       CLOUDY    31  29  93 SW7       29.78R WCI  24
6HR MIN TEMP:  30; 6HR MAX TEMP:  32;

TOMAHAWK       CLOUDY    32  28  86 W6        29.81R WCI  26
6HR MIN TEMP:  31; 6HR MAX TEMP:  32;

MEDFORD        CLOUDY    29  28  97 SW7       29.81S FOG     WCI  22
6HR MIN TEMP:  29; 6HR MAX TEMP:  32;

MERRILL        CLOUDY    32  30  94 SW5       29.83R WCI  27
6HR MIN TEMP:  32; 6HR MAX TEMP:  33;

$$

WIZ029-030-035-036-043>047-051300-
CENTRAL WISCONSIN

CITY           SKY/WX    TMP DP  RH WIND       PRES   REMARKS
WAUSAU         MOCLDY    31  29  92 SW9       29.83R WCI  23
6HR MIN TEMP:  31; 6HR MAX TEMP:  34;

MOSINEE        CLOUDY    32  30  93 SW6       29.84S WCI  26
MARSHFIELD     CLOUDY    32  30  92 W9        29.83S WCI  24
6HR MIN TEMP:  32; 6HR MAX TEMP:  33;

STEVENS POINT  MOCLDY    30  30 100 SW6       29.86S WCI  24
6HR MIN TEMP:  30; 6HR MAX TEMP:  32;

WAUPACA        CLEAR     32  30  91 CALM      29.88R
6HR MIN TEMP:  32; 6HR MAX TEMP:  36;

WAUTOMA        CLOUDY    33  32  96 SW9       29.90R WCI  25
6HR MIN TEMP:  31; 6HR MAX TEMP:  33;

WISC RAPIDS    CLOUDY    33  33 100 SW10      29.89R WCI  25
6HR MIN TEMP:  31; 6HR MAX TEMP:  34;

CAMP DOUGLAS   MOCLDY    34  30  86 SW5       29.89R WCI  30
$$

WIZ011>013-019>022-031-037>040-048>050-051300-
NORTHEAST WISCONSIN

CITY           SKY/WX    TMP DP  RH WIND       PRES   REMARKS
ANTIGO         CLOUDY    31  29  90 W10       29.81R WCI  23
6HR MIN TEMP:  30; 6HR MAX TEMP:  32;

SHAWANO        CLOUDY    35  32  87 SW5       29.86R WCI  31
6HR MIN TEMP:  33; 6HR MAX TEMP:  36;

OCONTO         MOCLDY    32  31  95 SW8       29.85R WCI  25
6HR MIN TEMP:  31; 6HR MAX TEMP:  33;

STURGEON BAY   CLOUDY    35  32  88 SW12G17   29.86R WCI  27
6HR MIN TEMP:  31; 6HR MAX TEMP:  35;

GREEN BAY      CLOUDY    36  33  89 SW9       29.87S WCI  29
6HR MIN TEMP:  34; 6HR MAX TEMP:  36;

MANITOWOC      CLOUDY    35  32  88 S6        29.90R WCI  30
6HR MIN TEMP:  31; 6HR MAX TEMP:  35;

APPLETON       CLOUDY    32  32 100 SW8       29.86R WCI  25
CLINTONVILLE   CLOUDY    34  32  93 SW6       29.86S WCI  29
OSHKOSH        CLOUDY    34  30  85 SW9       29.90R WCI  27
6HR MIN TEMP:  32; 6HR MAX TEMP:  34;

$$

WIZ032>034-041-042-053>061-051300-
SOUTHWEST WISCONSIN

CITY           SKY/WX    TMP DP  RH WIND       PRES   REMARKS
LA CROSSE      CLOUDY    35  32  88 SE8       29.87F WCI  29
6HR MIN TEMP:  35; 6HR MAX TEMP:  37;

SPARTA         CLOUDY    33  32  98 CALM      29.90R
6HR MIN TEMP:  32; 6HR MAX TEMP:  34; 6HR PCP:  0.08;

VIROQUA        CLOUDY    32  32 100 S6        29.87S VSB 1   WCI  26
6HR MIN TEMP:  32; 6HR MAX TEMP:  32;

BOSCOBEL       CLOUDY    35  33  92 S3        29.92F FOG
6HR MIN TEMP:  34; 6HR MAX TEMP:  36;

PRAIRIE DU CHI CLOUDY    33  31  92 CALM      29.91F FOG
6HR MIN TEMP:  33; 6HR MAX TEMP:  35; 6HR PCP:  0.07;

PLATTEVILLE    CLOUDY    33  33 100 S8        29.92F WCI  26
6HR MIN TEMP:  32; 6HR MAX TEMP:  33;

$$

WIZ056-057-062-063-064-067-068-051300-
SOUTH CENTRAL WISCONSIN

CITY           SKY/WX    TMP DP  RH WIND       PRES   REMARKS
REEDSBURG      CLOUDY    33  33 100 SW9       29.91S WCI  25
6HR MIN TEMP:  32; 6HR MAX TEMP:  33;

BARABOO/DELLS  CLOUDY    32  31  95 SW6       29.90F FOG     WCI  27
6HR MIN TEMP:  32; 6HR MAX TEMP:  33;

LONE ROCK      CLOUDY    34  32  92 VRB5      29.94R FOG     WCI  30
6HR MIN TEMP:  33; 6HR MAX TEMP:  34;

MINERAL POINT  FOG       34  34 100 S6        29.91F VSB 1/2 WCI  29
MADISON        CLOUDY    33  32  96 SW7       29.93S WCI  27
6HR MIN TEMP:  33; 6HR MAX TEMP:  34;

MIDDLETON      CLOUDY    34  34 100 SW6       29.93S WCI  29
6HR MIN TEMP:  34; 6HR MAX TEMP:  34;

WATERTOWN      CLOUDY    32  32 100 SW3       29.94S
6HR MIN TEMP:  32; 6HR MAX TEMP:  33;

MONROE         FOG       32  32 100 SW10      29.93F VSB 3/4 WCI  24
JANESVILLE     CLOUDY    34  34 100 SW7       29.95F FOG     WCI  28
$$

WIZ051-052-058>065-066-070>072-051300-
SOUTHEAST WISCONSIN

CITY           SKY/WX    TMP DP  RH WIND       PRES   REMARKS
MILWAUKEE      CLOUDY    35  30  82 W9        29.95F WCI  28
6HR MIN TEMP:  34; 6HR MAX TEMP:  35; 6HR PCP: TRACE;

WAUKESHA       CLOUDY    30  28  93 SW7       29.96R WCI  23
MILWAUKEE/TIMM CLOUDY    32  30  93 W8        29.96S WCI  25
RACINE         CLOUDY    33  30  88 W7        29.98S WCI  27
6HR MIN TEMP:  33; 6HR MAX TEMP:  34;

BURLINGTON     CLOUDY    32  31  98 SW7       29.96F WCI  26
6HR MIN TEMP:  32; 6HR MAX TEMP:  32;

KENOSHA        CLOUDY    33  31  92 W9        29.97S WCI  25
6HR MIN TEMP:  32; 6HR MAX TEMP:  33;

FOND DU LAC    CLOUDY    34  29  82 SW7       29.92R WCI  28
6HR MIN TEMP:  32; 6HR MAX TEMP:  35;

SHEBOYGAN      CLOUDY    34  29  82 W14       29.91R WCI  25
6HR MIN TEMP:  31; 6HR MAX TEMP:  34;

WEST BEND      CLOUDY    32  32 100 W8G17     29.93R WCI  25
JUNEAU         CLOUDY    32  31  95 SW8       29.94S WCI  25
6HR MIN TEMP:  32; 6HR MAX TEMP:  32;

$$

LSZ147-162-051300-
LAKE SUPERIOR

STATION/POSITION TIME  TEMP    WIND        PRES    WAVE
                       AIR SEA DIR/SP/G            HT/PER
                 (UTC) (F)     (DEG/KT/KT) (MB)    (FT/S)
DEVILS ISLAND    1200   35     280/ 19/ 23 1007.8R
PORT WING        1140   36     260/  9/ 16 1007.8S
SAXON HARBOR     1140   36     240/  4/  9 1008.1R
$$

LMZ867-665-643>646-051300-
LAKE MICHIGAN

STATION/POSITION TIME  TEMP    WIND        PRES    WAVE
                       AIR SEA DIR/SP/G            HT/PER
                 (UTC) (F)   C1F1C2F2C3F3C4F4C5F5C6F6C7F7C8M1C9M2Ca!



USA.gov is the U.S. government's official web portal to all federal, state and local government web resources and services.